Location: Bathsheba
(13.2167°N, 59.5167°W)
Time: 22:19:36
(UTC+00:00)

Cosmos 1066 Rocket - Pass Details

Date: 18 September 2020
Orbit: 798 x 895 km, 81.2° (Epoch: 20 October)

Event Time Altitude Azimuth Distance (km) Brightness Sun altitude
Rises 22:22:27 0° 351° (N) 3,302 7.4 -7.1°
Reaches altitude 10° 22:24:48 10° 350° (N) 2,378 6.7 -7.7°
Maximum altitude 22:30:09 75° 265° (W) 842 4.4 -9.0°
Drops below altitude 10° 22:35:37 10° 180° (S) 2,426 6.6 -10.3°
Sets 22:38:03 0° 179° (S) 3,374 7.3 -10.9°
